Zurück zum Katalog

FENGYUN 1C DEB

AktivSSO
NORAD 41832·DEBRIS·🇨🇳 China

Gestartet May 10, 1999 von Taiyuan Satellite Launch Center

Loading…

Nächste Überflüge (nächste 24 Stunden)

TLE

AktuellSource: Space-Track

Epoche: Sep 14, 2026, 15:07 UTC

1 41832U 99025EYK 26257.63040420  .00002057  00000-0  86896-3 0  9998
2 41832  98.7105 324.8893 0055602 144.7823 215.7051 14.25827474512805

Verfolge FENGYUN 1C DEB in Echtzeit mit AllMySat

Download on the App Store